EW1644 Weather Reports


Display with metric or nautical units.
time (UTC)temp
F
wind
direction
speed
MPH
gust
MPH
rain 1hr
in
rain 24hr
in
rain mn
in
humidity
%
barometer
mb
20260508033016 39 89 1.0 2.0 0.00 0.00 0.00 57 1020.1
20260508031516 40 89 0.0 2.0 0.00 0.00 0.00 54 1020.1
20260508030011 39 89 0.0 2.0 0.00 0.00 0.00 60 1019.9
20260508024519 40 82 1.0 3.0 0.00 0.00 0.00 58 1019.9
20260508023012 39 115 1.0 3.0 0.00 0.00 0.00 58 1019.8
20260508021512 40 109 2.0 3.0 0.00 0.00 0.00 57 1019.6
20260508020008 40 91 2.0 2.0 0.00 0.00 0.00 56 1019.7
20260508014508 42 106 0.0 3.0 0.00 0.00 0.00 52 1019.6
20260508013008 43 121 1.0 3.0 0.00 0.00 0.00 50 1019.6
20260508011507 43 71 0.0 5.0 0.00 0.00 0.00 48 1019.6
20260508010008 44 104 0.0 3.0 0.00 0.00 0.00 49 1019.6
20260508004507 45 84 0.0 2.0 0.00 0.00 0.00 45 1019.8
20260508003006 47 266 1.0 9.0 0.00 0.00 0.00 42 1019.9
20260508001506 47 3 1.0 7.0 0.00 0.00 0.00 41 1019.9
20260508000006 48 27 2.0 6.0 0.00 0.00 0.00 38 1020.1
20260507234503 49 15 2.0 6.0 0.00 0.00 0.00 35 1019.7
20260507233003 51 20 1.0 4.0 0.00 0.00 0.00 38 1019.6
20260507231502 50 63 1.0 7.0 0.00 0.00 0.00 35 1019.9
20260507230100 48 77 1.0 6.0 0.00 0.00 0.00 37 1020.0
20260507224600 49 86 3.0 7.0 0.00 0.00 0.00 36 1020.0
20260507223116 48 141 1.0 3.0 0.00 0.00 0.00 37 1020.1
20260507221558 49 82 0.0 3.0 0.00 0.00 0.00 37 1020.3
20260507220057 50 304 0.0 0.0 0.00 0.00 0.00 37 1020.5
20260507214553 51 293 0.0 0.0 0.00 0.00 0.00 41 1020.8
20260507213052 50 15 0.0 0.0 0.00 0.00 0.00 40 1021.1
20260507211600 52 321 0.0 10.0 0.00 0.00 0.00 35 1021.3
20260507210106 52 92 0.0 1.0 0.00 0.00 0.00 36 1021.4
20260507204549 51 57 0.0 3.0 0.00 0.00 0.00 36 1021.6
20260507203046 52 33 0.0 0.0 0.00 0.00 0.00 37 1021.7
20260507201545 52 78 0.0 0.0 0.00 0.00 0.00 44 1021.8
20260507200050 50 68 0.0 0.0 0.00 0.00 0.00 41 1022.2
20260507194548 49 338 0.0 0.0 0.00 0.00 0.00 44 1022.4
20260507193034 48 303 0.0 0.0 0.00 0.00 0.00 44 1022.7
20260507191534 48 359 0.0 9.0 0.00 0.00 0.00 44 1022.8
20260507190041 47 312 2.0 7.0 0.00 0.00 0.00 49 1023.2
20260507184533 46 311 4.0 10.0 0.00 0.00 0.00 48 1023.7
20260507183025 46 311 3.0 6.0 0.00 0.00 0.00 47 1024.1
20260507181524 45 307 1.0 4.0 0.00 0.00 0.00 50 1024.2
20260507180021 44 29 1.0 5.0 0.00 0.00 0.00 55 1024.5
20260507174518 43 314 3.0 5.0 0.00 0.00 0.00 58 1024.7
20260507173034 42 305 2.0 5.0 0.00 0.00 0.00 57 1025.1
20260507171511 41 328 2.0 5.0 0.00 0.00 0.00 56 1025.6
20260507170016 40 255 3.0 6.0 0.00 0.00 0.00 59 1025.8
20260507164512 39 326 2.0 4.0 0.00 0.00 0.00 58 1026.2
20260507163002 38 296 2.0 4.0 0.00 0.00 0.00 58 1026.3
20260507161604 37 298 2.0 5.0 0.00 0.00 0.00 57 1026.7
20260507160057 36 276 1.0 4.0 0.00 0.00 0.00 54 1027.0
20260507154557 34 293 0.0 3.0 0.00 0.00 0.00 55 1027.3
20260507153050 34 356 1.0 3.0 0.00 0.00 0.00 56 1027.4
20260507151548 32 311 0.0 3.0 0.00 0.00 0.00 57 1027.5
20260507150047 32 264 1.0 3.0 0.00 0.00 0.00 58 1027.6
20260507144540 30 32 0.0 4.0 0.00 0.00 0.00 60 1027.6
20260507143040 29 344 0.0 2.0 0.00 0.00 0.00 62 1027.8
20260507141533 27 345 0.0 3.0 0.00 0.00 0.00 65 1027.9
20260507140027 26 359 1.0 2.0 0.00 0.00 0.00 68 1027.9
20260507134523 23 96 0.0 1.0 0.00 0.00 0.00 74 1027.8
20260507133024 21 96 0.0 1.0 0.00 0.00 0.00 76 1027.8
20260507131520 19 96 0.0 0.0 0.00 0.00 0.00 80 1027.7
20260507130016 17 96 0.0 0.0 0.00 0.00 0.00 84 1027.5
20260507124520 17 96 0.0 0.0 0.00 0.00 0.00 84 1027.2
20260507123014 16 96 0.0 1.0 0.00 0.00 0.00 86 1026.8
20260507121514 16 96 0.0 0.0 0.00 0.00 0.00 83 1026.6
20260507120009 16 96 0.0 0.0 0.00 0.00 0.00 84 1026.3
20260507114509 16 96 0.0 0.0 0.00 0.00 0.00 82 1026.2
20260507113029 17 96 0.0 1.0 0.00 0.00 0.00 83 1026.2
20260507111507 16 97 0.0 1.0 0.00 0.00 0.00 82 1026.3
20260507110009 17 97 0.0 1.0 0.00 0.00 0.00 81 1026.3
20260507104505 17 97 0.0 1.0 0.00 0.00 0.00 82 1026.3
20260507103001 17 97 0.0 1.0 0.00 0.00 0.00 83 1026.3
20260507101559 17 97 0.0 0.0 0.00 0.00 0.00 83 1026.0
20260507100111 18 97 0.0 0.0 0.00 0.00 0.00 83 1025.8
20260507094602 17 96 0.0 1.0 0.00 0.00 0.00 83 1025.6
20260507093053 18 97 0.0 0.0 0.00 0.00 0.00 83 1025.3
20260507091608 18 97 0.0 0.0 0.00 0.00 0.00 82 1025.3
20260507090050 18 97 0.0 0.0 0.00 0.00 0.00 82 1025.2
20260507084600 18 97 0.0 0.0 0.00 0.00 0.00 82 1025.2
20260507083047 19 97 0.0 0.0 0.00 0.00 0.00 81 1025.2
20260507081552 20 97 0.0 0.0 0.00 0.00 0.00 82 1025.1
20260507080044 19 99 0.0 2.0 0.00 0.00 0.00 82 1024.9
20260507074540 19 99 0.0 1.0 0.00 0.00 0.00 81 1024.7
20260507073036 20 100 0.0 0.0 0.00 0.00 0.00 80 1024.7
20260507071531 21 99 0.0 1.0 0.00 0.00 0.00 79 1024.6
20260507070028 21 100 0.0 1.0 0.00 0.00 0.00 79 1024.1
20260507064525 22 100 0.0 2.0 0.00 0.00 0.00 80 1024.2
20260507063027 22 102 0.0 2.0 0.00 0.00 0.00 78 1024.0
20260507061520 22 102 0.0 1.0 0.00 0.00 0.00 78 1023.9
20260507060017 22 89 0.0 1.0 0.00 0.00 0.00 79 1023.8
20260507054515 22 87 0.0 1.0 0.00 0.00 0.00 80 1023.7
20260507053013 22 87 0.0 1.0 0.00 0.00 0.00 81 1023.5
20260507051510 22 87 0.0 1.0 0.00 0.00 0.00 79 1023.2
20260507050012 23 88 0.0 0.0 0.00 0.00 0.00 79 1022.7
20260507044504 23 87 0.0 0.0 0.00 0.00 0.00 78 1022.6
20260507043006 24 87 0.0 0.0 0.00 0.00 0.00 78 1022.5
20260507041606 24 87 0.0 0.0 0.00 0.00 0.00 78 1022.1
20260507040056 25 88 0.0 0.0 0.00 0.00 0.00 75 1021.8
20260507034554 26 88 0.0 2.0 0.00 0.00 0.00 71 1021.5